TimeCST,TemperatureF,Dew PointF,Humidity,Sea Level PressureIn,VisibilityMPH,Wind Direction,Wind SpeedMPH,Gust SpeedMPH,PrecipitationIn,Events,Conditions,WindDirDegrees,DateUTC
12:15 AM,12.2,6.6,78,30.59,10.0,Calm,Calm,-,N/A,,Scattered Clouds,0,2013-12-08 06:15:00
12:35 AM,12.2,6.3,77,30.57,10.0,Calm,Calm,-,N/A,,Scattered Clouds,0,2013-12-08 06:35:00
12:55 AM,12.0,5.9,76,30.54,10.0,NNE,4.6,-,N/A,,Mostly Cloudy,30,2013-12-08 06:55:00
1:15 AM,12.2,5.9,76,30.54,10.0,NNE,4.6,-,N/A,,Mostly Cloudy,30,2013-12-08 07:15:00
1:35 AM,12.0,5.7,76,30.52,10.0,NE,6.9,-,N/A,,Mostly Cloudy,40,2013-12-08 07:35:00
1:55 AM,11.8,5.9,77,30.51,10.0,NE,9.2,-,N/A,,Overcast,50,2013-12-08 07:55:00
2:15 AM,11.8,5.9,77,30.49,10.0,NE,12.7,-,N/A,,Overcast,40,2013-12-08 08:15:00
2:35 AM,11.8,5.4,75,30.49,10.0,NE,11.5,-,N/A,,Overcast,50,2013-12-08 08:35:00
2:55 AM,12.2,5.7,75,30.49,10.0,ENE,10.4,-,N/A,,Overcast,60,2013-12-08 08:55:00
3:15 AM,12.2,5.5,75,30.48,10.0,NE,9.2,-,N/A,,Overcast,40,2013-12-08 09:15:00
3:35 AM,12.6,5.7,74,30.47,10.0,NE,9.2,-,N/A,,Overcast,50,2013-12-08 09:35:00
3:55 AM,12.9,5.5,72,30.47,10.0,NE,9.2,-,N/A,,Overcast,50,2013-12-08 09:55:00
4:15 AM,13.1,5.9,73,30.47,10.0,ENE,10.4,-,N/A,,Overcast,60,2013-12-08 10:15:00
4:35 AM,13.1,5.9,73,30.47,10.0,NE,6.9,-,N/A,,Overcast,40,2013-12-08 10:35:00
4:55 AM,13.5,5.9,72,30.44,10.0,NE,10.4,-,N/A,,Overcast,50,2013-12-08 10:55:00
5:15 AM,13.8,6.1,71,30.43,10.0,NE,11.5,-,N/A,,Overcast,50,2013-12-08 11:15:00
5:35 AM,13.8,5.7,70,30.43,10.0,NE,12.7,-,N/A,,Overcast,50,2013-12-08 11:35:00
5:55 AM,14.0,5.9,70,30.41,10.0,ENE,15.0,-,N/A,,Overcast,60,2013-12-08 11:55:00
6:15 AM,14.2,6.4,71,30.40,10.0,ENE,11.5,-,N/A,,Overcast,60,2013-12-08 12:15:00
6:35 AM,14.5,6.8,71,30.39,10.0,NE,11.5,-,N/A,,Overcast,50,2013-12-08 12:35:00
6:55 AM,14.9,7.5,73,30.39,10.0,NE,10.4,-,N/A,,Overcast,50,2013-12-08 12:55:00
7:15 AM,14.9,7.7,73,30.39,10.0,ENE,9.2,-,N/A,,Overcast,60,2013-12-08 13:15:00
7:35 AM,15.4,8.4,74,30.38,10.0,ENE,8.1,-,N/A,,Overcast,70,2013-12-08 13:35:00
7:55 AM,15.8,8.6,73,30.38,10.0,ENE,10.4,-,N/A,,Overcast,70,2013-12-08 13:55:00
8:15 AM,16.2,9.5,75,30.37,10.0,ENE,10.4,-,N/A,,Overcast,70,2013-12-08 14:15:00
8:35 AM,16.7,10.4,76,30.36,10.0,ENE,8.1,-,N/A,,Overcast,70,2013-12-08 14:35:00
8:55 AM,17.6,11.3,76,30.35,10.0,East,8.1,-,N/A,,Overcast,80,2013-12-08 14:55:00
9:15 AM,18.5,12.2,76,30.34,10.0,East,9.2,-,N/A,,Mostly Cloudy,80,2013-12-08 15:15:00
9:35 AM,19.2,13.1,77,30.33,10.0,East,10.4,-,N/A,,Mostly Cloudy,90,2013-12-08 15:35:00
9:55 AM,19.9,13.3,75,30.32,10.0,East,11.5,-,N/A,,Scattered Clouds,90,2013-12-08 15:55:00
10:15 AM,20.8,14.0,75,30.31,10.0,East,11.5,-,N/A,,Scattered Clouds,90,2013-12-08 16:15:00
10:35 AM,21.2,14.2,74,30.30,7.0,East,15.0,-,N/A,Snow,Light Snow,100,2013-12-08 16:35:00
10:55 AM,21.4,14.9,76,30.28,4.0,East,15.0,-,N/A,Snow,Light Snow,100,2013-12-08 16:55:00
11:15 AM,21.7,15.8,78,30.25,3.0,East,15.0,-,N/A,Snow,Light Snow,100,2013-12-08 17:15:00
11:35 AM,22.1,16.7,80,30.23,2.5,East,15.0,19.6,N/A,Snow,Light Snow,90,2013-12-08 17:35:00
11:55 AM,22.1,17.1,81,30.22,2.5,East,16.1,-,N/A,Snow,Light Snow,90,2013-12-08 17:55:00
12:15 PM,22.5,17.2,80,30.21,2.0,East,15.0,-,N/A,Snow,Light Snow,90,2013-12-08 18:15:00
12:35 PM,22.8,18.3,83,30.20,1.2,East,13.8,-,N/A,Snow,Light Snow,100,2013-12-08 18:35:00
12:55 PM,23.0,18.5,83,30.18,1.2,East,15.0,-,N/A,Snow,Light Snow,100,2013-12-08 18:55:00
1:15 PM,22.6,18.1,83,30.16,1.5,East,16.1,-,N/A,Snow,Light Snow,90,2013-12-08 19:15:00
1:35 PM,23.0,18.5,83,30.13,1.8,East,11.5,-,N/A,Snow,Light Snow,80,2013-12-08 19:35:00
1:55 PM,22.8,18.5,83,30.11,1.0,East,17.3,20.7,N/A,Snow,Light Snow,80,2013-12-08 19:55:00
2:15 PM,22.8,18.9,85,30.10,1.2,East,13.8,19.6,N/A,Snow,Light Snow,80,2013-12-08 20:15:00
2:35 PM,23.0,19.0,85,30.09,2.0,East,15.0,-,N/A,Snow,Light Snow,80,2013-12-08 20:35:00
2:55 PM,23.0,19.2,85,30.09,1.2,East,9.2,-,N/A,Snow,Light Snow,80,2013-12-08 20:55:00
3:15 PM,23.0,19.4,86,30.07,1.0,East,11.5,-,N/A,Snow,Light Snow,80,2013-12-08 21:15:00
3:35 PM,23.0,19.6,87,30.06,0.5,East,11.5,-,N/A,Snow,Snow,80,2013-12-08 21:35:00
3:55 PM,23.0,20.3,89,30.06,1.0,East,9.2,-,N/A,Snow,Light Snow,90,2013-12-08 21:55:00
4:15 PM,23.0,20.7,91,30.05,1.5,East,10.4,-,N/A,Snow,Light Snow,100,2013-12-08 22:15:00
4:35 PM,23.0,20.1,89,30.04,1.5,ESE,10.4,-,N/A,Snow,Light Snow,110,2013-12-08 22:35:00
4:55 PM,22.8,19.9,89,30.04,2.0,East,9.2,-,N/A,Snow,Light Snow,100,2013-12-08 22:55:00
5:15 PM,22.6,19.9,89,30.03,3.0,East,9.2,-,N/A,Snow,Light Snow,100,2013-12-08 23:15:00
5:35 PM,22.6,19.9,89,30.03,1.8,East,9.2,-,N/A,Snow,Light Snow,100,2013-12-08 23:35:00
5:55 PM,22.6,20.1,90,30.03,1.5,East,5.8,-,N/A,Snow,Light Snow,100,2013-12-08 23:55:00
6:15 PM,22.6,20.1,90,30.02,1.2,East,6.9,-,N/A,Snow,Snow,100,2013-12-09 00:15:00
6:35 PM,22.6,20.3,91,30.01,1.5,East,9.2,-,N/A,Snow,Light Snow,100,2013-12-09 00:35:00
6:55 PM,22.6,20.3,91,30.01,1.5,East,8.1,-,N/A,Snow,Light Snow,100,2013-12-09 00:55:00
7:15 PM,22.6,20.3,91,30.01,3.0,East,6.9,-,N/A,Snow,Light Snow,100,2013-12-09 01:15:00
7:35 PM,22.8,20.3,90,30.01,4.0,East,3.5,-,N/A,,Overcast,90,2013-12-09 01:35:00
7:55 PM,22.8,20.3,90,30.00,3.0,East,4.6,-,N/A,Snow,Light Snow,80,2013-12-09 01:55:00
8:15 PM,22.8,20.3,90,30.00,4.0,East,3.5,-,N/A,Snow,Light Snow,90,2013-12-09 02:15:00
8:35 PM,22.6,20.3,91,29.99,7.0,East,4.6,-,N/A,,Overcast,100,2013-12-09 02:35:00
8:55 PM,22.5,20.1,91,29.99,7.0,Calm,Calm,-,N/A,,Overcast,0,2013-12-09 02:55:00
9:15 PM,22.1,19.9,91,29.97,7.0,Calm,Calm,-,N/A,,Mostly Cloudy,0,2013-12-09 03:15:00
9:35 PM,21.9,19.6,91,29.97,5.0,Calm,Calm,-,N/A,,Mostly Cloudy,0,2013-12-09 03:35:00
9:55 PM,21.9,19.8,91,29.96,7.0,Calm,Calm,-,N/A,,Overcast,0,2013-12-09 03:55:00
10:15 PM,21.9,19.8,91,29.96,7.0,Calm,Calm,-,N/A,,Overcast,0,2013-12-09 04:15:00
10:35 PM,21.9,19.8,91,29.96,5.0,Calm,Calm,-,N/A,,Overcast,0,2013-12-09 04:35:00
10:55 PM,21.7,19.8,92,29.96,5.0,WSW,3.5,-,N/A,,Overcast,250,2013-12-09 04:55:00
11:15 PM,21.9,20.1,93,29.95,5.0,WSW,4.6,-,N/A,,Overcast,250,2013-12-09 05:15:00
11:35 PM,21.9,20.3,93,29.96,5.0,WSW,5.8,-,N/A,,Overcast,250,2013-12-09 05:35:00
11:55 PM,21.9,20.3,93,29.95,4.0,WSW,6.9,-,N/A,,Overcast,240,2013-12-09 05:55:00